[[{"header":{"parameterUnit":"m.s-1","parameterCategory":1,"la1":30.2991,"la2":30.254,"lo1":-89.0895,"lo2":-89.0444,"dy":0.0017,"dx":0.0017,"nx":28,"ny":28,"refTime":"2025-03-15T09:00:00:Z","depth":0,"parameterNumber":2,"parameterNumberName":"U-component_of_WINDS"},"data":[0,0,0,0,0,0,0,0,0,0,0,0,0,0,0,0,0,0,0,0,0,0,0,0,0,0,0,0,0,0,0,0,0,0,0,0,0,0,0,0,0,0,0,0,0,0,0,0,0,0,0,0,0,0,0,0,0,0,-4.8028,-4.803,0,-4.818,-4.8182,-4.8184,-4.8219,-4.8218,-4.8217,-4.8216,-4.8371,-4.8376,-4.8381,0,0,0,0,0,0,0,0,0,0,0,0,0,-4.7767,-4.7772,-4.8028,-4.803,-4.8032,-4.818,-4.8182,-4.8184,-4.8219,-4.8218,-4.8216,-4.8215,-4.8369,-4.8375,-4.8381,0,0,0,0,0,0,0,0,0,0,0,0,0,-4.7896,-4.7773,-4.8028,-4.8067,-4.8072,-4.818,-4.8182,-4.8185,-4.8219,-4.8218,-4.8216,-4.8215,-4.8367,-4.8374,-4.8382,-4.8461,0,0,-4.8405,-4.8409,0,0,0,0,0,0,0,0,-4.7889,-4.7906,-4.8059,-4.8065,-4.807,-4.8179,-4.8147,-4.8277,-4.822,-4.8163,-4.8216,-4.8214,-4.8308,-4.832,-4.8352,-4.8468,-4.8475,-4.8406,-4.8411,-4.8414,-4.8416,0,0,0,0,0,0,0,-4.788,-4.7899,-4.8088,-4.8062,-4.8068,-4.8077,-4.8094,-4.8172,-4.8243,-4.8168,-4.8171,-4.8189,-4.8311,-4.8345,-4.8356,-4.8477,-4.8406,-4.8413,-4.8417,-4.842,-4.8666,-4.8667,0,0,0,0,0,0,-4.7864,-4.7892,-4.8083,-4.8093,-4.7974,-4.8083,-4.8102,-4.8146,-4.8242,-4.8255,-4.819,-4.819,-4.8333,-4.8347,-4.8362,-4.846,-4.8414,-4.8421,-4.8425,-4.8664,-4.8666,-4.8668,0,0,0,0,0,0,-4.7858,-4.7881,-4.8077,-4.7993,-4.8019,-4.8089,-4.8139,-4.815,-4.8184,-4.8258,-4.8271,-4.8212,-4.8332,-4.8351,-4.8436,-4.8466,-4.8424,-4.8431,-4.8661,-4.8664,-4.8667,-4.8658,0,0,0,0,0,0,-4.7851,-4.7878,-4.7909,-4.7994,-4.8023,-4.8149,-4.814,-4.8154,-4.8197,-4.8198,-4.8282,-4.8295,-4.8332,-4.8425,-4.8444,-4.8476,-4.8437,-4.8659,-4.8663,-4.8666,-4.8656,-4.866,-4.8664,0,0,0,0,0,-4.7841,-4.79,-4.791,-4.7933,-4.8063,-4.815,-4.8167,-4.821,-4.8199,-4.8231,-4.8279,-4.8292,-4.846,-4.8433,-4.8455,-4.849,-4.8657,-4.8662,-4.8666,-4.8654,-4.8659,-4.8664,0,0,0,0,0,0,-4.7816,-4.7912,-4.7924,-4.8012,-4.8073,-4.8156,-4.8197,-4.8214,-4.8279,-4.8277,-4.8327,-4.8345,-4.8427,-4.8468,-4.8435,-4.8572,-4.8559,-4.8567,-4.8542,-4.8547,-4.8551,-4.8539,-4.8444,0,0,0,0,0,-4.7821,-4.7884,-4.7965,-4.8034,-4.8064,-4.8125,-4.8165,-4.8193,-4.8258,-4.8283,-4.8338,-4.84,-4.8467,-4.851,-4.8576,-4.8663,-4.8681,-4.8698,-4.8702,-4.8705,-4.8711,-4.876,-4.8768,-4.8682,-4.8682,-4.8682,0,0,-4.7831,-4.7891,-4.7928,-4.8031,-4.8081,-4.8146,-4.8147,-4.8214,-4.8263,-4.8294,-4.8377,-4.8419,-4.8492,-4.8578,-4.8619,-4.8614,-4.8739,-4.871,-4.8712,-4.8717,-4.8765,-4.8773,-4.878,-4.8685,-4.8685,-4.8684,0,0,-4.7882,-4.7935,-4.7999,-4.805,-4.8126,-4.8167,-4.8182,-4.8264,-4.8293,-4.8378,-4.8402,-4.8461,-4.8575,-4.8626,-4.8667,-4.874,-4.8754,-4.876,-4.878,-4.8827,-4.8834,-4.884,-4.8865,-4.8874,-4.8767,-4.8767,-4.8767,0,-4.7885,-4.7983,-4.8029,-4.8096,-4.8141,-4.8173,-4.8238,-4.8285,-4.8379,-4.8409,-4.8403,-4.8548,-4.8599,-4.8698,-4.8716,-4.8748,-4.8767,-4.8749,-4.8829,-4.8836,-4.8843,-4.8867,-4.8876,-4.8767,-4.8767,-4.8767,-4.8767,0,-4.7983,-4.805,-4.8093,-4.8183,-4.8233,-4.8298,-4.8354,-4.8399,-4.8423,-4.8464,-4.8551,-4.8614,-4.8693,-4.8719,-4.8743,-4.8822,-4.8817,-4.882,-4.8807,-4.885,-4.8874,-4.8884,-4.8767,-4.8767,-4.8767,-4.8767,0,0,-4.802,-4.8136,-4.8151,-4.8192,-4.8281,-4.8334,-4.8402,-4.848,-4.8517,-4.8581,-4.8639,-4.8736,-4.874,-4.8786,-4.8817,-4.8858,-4.8911,-4.8856,-4.8859,-4.8863,-4.9001,-4.8997,-4.9007,-4.8923,-4.8925,-4.8926,-4.8995,0,-4.8081,-4.8202,-4.8246,-4.8346,-4.8409,-4.8442,-4.8501,-4.8561,-4.8602,-4.8662,-4.8707,-4.8775,-4.8775,-4.8803,-4.8847,-4.8895,-4.8939,-4.8892,-4.8976,-4.8978,-4.8954,-4.902,-4.9015,-4.9077,-4.9004,-4.9006,-4.9007,0,-4.8167,-4.8233,-4.8339,-4.842,-4.8448,-4.85,-4.8576,-4.8633,-4.8702,-4.873,-4.8782,-4.881,-4.8883,-4.8868,-4.8968,-4.8934,-4.8972,-4.9001,-4.9005,-4.9012,-4.8993,-4.9028,-4.9097,-4.9106,-4.9022,-4.9021,-4.902,0,-4.8182,-4.8298,-4.8376,-4.8411,-4.8508,-4.8544,-4.8585,-4.8654,-4.8698,-4.8765,-4.8794,-4.8868,-4.8908,-4.8965,-4.9012,-4.8997,-4.9108,-4.9097,-4.9132,-4.913,-4.9151,-4.9149,-4.9226,-4.9179,-4.9179,-4.9178,-4.9178,0,-4.8244,-4.8307,-4.8384,-4.8432,-4.8504,-4.8555,-4.8625,-4.8669,-4.873,-4.8787,-4.8821,-4.8874,-4.8934,-4.8995,-4.9033,-4.911,-4.9128,-4.9152,-4.9161,-4.9148,-4.9144,-4.9171,-4.9168,-4.9181,-4.918,-4.918,-4.9179,0,-4.8272,-4.8326,-4.8413,-4.8498,-4.8521,-4.8571,-4.8643,-4.8691,-4.8735,-4.8807,-4.8827,-4.8895,-4.8969,-4.9022,-4.9117,-4.9143,-4.9225,-4.9235,-4.9201,-4.9205,-4.9236,-4.9232,-4.9332,-4.9348,-4.9291,-4.9291,-4.9292,0,-4.8307,-4.8356,-4.8447,-4.8488,-4.853,-4.8595,-4.8641,-4.8694,-4.874,-4.8824,-4.8862,-4.8938,-4.9002,-4.9118,-4.9176,-4.9249,-4.926,-4.929,-4.9271,-4.9257,-4.9259,-4.9255,-4.926,-4.9292,-4.9292,-4.9293,-4.9293,0,-4.8363,-4.8388,-4.8452,-4.8527,-4.8581,-4.8642,-4.8704,-4.8736,-4.8799,-4.885,-4.8926,-4.8975,-4.9073,-4.9148,-4.9227,-4.9271,-4.9292,-4.9299,-4.9311,-4.9297,-4.9275,-4.9286,-4.9207,-4.9296,-4.9296,-4.9295,-4.9295,-4.9295,-4.8395,-4.844,-4.8511,-4.8583,-4.8635,-4.8692,-4.8741,-4.8792,-4.8856,-4.8939,-4.8967,-4.9046,-4.9115,-4.9224,-4.9269,-4.9331,-4.933,-4.9347,-4.9351,-4.9354,-4.9353,-4.9267,-4.9346,-4.9346,-4.9346,-4.9346,-4.9346,0,-4.8452,-4.8499,-4.8565,-4.865,-4.8706,-4.8723,-4.8793,-4.8838,-4.8907,-4.8971,-4.9033,-4.912,-4.9194,-4.9258,-4.9335,-4.9372,-4.9384,-4.939,-4.9387,-4.9397,-4.935,-4.9332,-4.9379,-4.9379,-4.9379,-4.9379,-4.9379,-4.9379,-4.8488,-4.8566,-4.8599,-4.8703,-4.8751,-4.8828,-4.8866,-4.892,-4.897,-4.9067,-4.9128,-4.917,-4.9234,-4.9316,-4.9384,-4.9401,-4.9427,-4.943,-4.945,-4.9404,-4.94,-4.9396,-4.9379,-4.9436,-4.9436,-4.9491,-4.9492,-4.9492]},{"header":{"parameterUnit":"m.s-1","parameterCategory":1,"la1":30.2991,"la2":30.254,"lo1":-89.0895,"lo2":-89.0444,"dy":0.0017,"dx":0.0017,"nx":28,"ny":28,"refTime":"2025-03-15T09:00:00:Z","depth":0,"parameterNumber":3,"parameterNumberName":"V-component_of_WINDS"},"data":[0,0,0,0,0,0,0,0,0,0,0,0,0,0,0,0,0,0,0,0,0,0,0,0,0,0,0,0,0,0,0,0,0,0,0,0,0,0,0,0,0,0,0,0,0,0,0,0,0,0,0,0,0,0,0,0,0,0,6.2873,6.2875,0,6.3,6.3002,6.3003,6.3006,6.3004,6.3003,6.3001,6.3128,6.3133,6.3138,0,0,0,0,0,0,0,0,0,0,0,0,0,6.2632,6.2636,6.2873,6.2875,6.2876,6.3,6.3002,6.3004,6.3006,6.3004,6.3002,6.3,6.3127,6.3132,6.3138,0,0,0,0,0,0,0,0,0,0,0,0,0,6.2746,6.2638,6.2873,6.2893,6.2896,6.3,6.3002,6.3004,6.3006,6.3004,6.3002,6.2999,6.3125,6.3132,6.3139,6.3231,0,0,6.3161,6.3164,0,0,0,0,0,0,0,0,6.2739,6.2754,6.2888,6.2891,6.2895,6.2985,6.2964,6.308,6.3007,6.2964,6.3001,6.2998,6.3082,6.3093,6.3122,6.3237,6.3243,6.3162,6.3166,6.317,6.3172,0,0,0,0,0,0,0,6.2731,6.2749,6.2923,6.289,6.2894,6.2895,6.2908,6.2986,6.3035,6.2968,6.2968,6.2983,6.3084,6.3115,6.3125,6.3245,6.3162,6.3168,6.3173,6.3176,6.3446,6.3449,0,0,0,0,0,0,6.272,6.2742,6.2919,6.2927,6.281,6.2901,6.2916,6.2958,6.3034,6.3043,6.2985,6.2983,6.3104,6.3116,6.3129,6.3246,6.3169,6.3176,6.318,6.3444,6.3447,6.345,0,0,0,0,0,0,6.2715,6.2735,6.2914,6.2835,6.2858,6.2908,6.2955,6.2962,6.2993,6.3047,6.3056,6.3008,6.3102,6.3119,6.3207,6.325,6.318,6.3186,6.344,6.3445,6.3449,6.3477,0,0,0,0,0,0,6.2708,6.2734,6.2769,6.2836,6.2862,6.299,6.2958,6.2966,6.3006,6.3004,6.3071,6.308,6.3102,6.3196,6.3214,6.3259,6.3192,6.3437,6.3442,6.3447,6.3472,6.3481,6.3489,0,0,0,0,0,6.2699,6.277,6.2771,6.2792,6.2908,6.2992,6.3007,6.3032,6.3009,6.3046,6.3081,6.3078,6.3242,6.3205,6.3226,6.3273,6.3434,6.3441,6.3447,6.3468,6.348,6.3489,0,0,0,0,0,0,6.2705,6.2779,6.2781,6.2876,6.2928,6.2993,6.3039,6.3042,6.3101,6.3097,6.3124,6.3139,6.3228,6.3258,6.3216,6.3368,6.3335,6.3346,6.3345,6.3356,6.3364,6.3356,6.3198,0,0,0,0,0,6.2718,6.2781,6.2842,6.292,6.2947,6.2989,6.3026,6.3041,6.3096,6.3118,6.3159,6.3212,6.3276,6.3317,6.3379,6.3476,6.3493,6.3519,6.3528,6.3534,6.3544,6.3602,6.3615,6.3471,6.3471,6.3471,0,0,6.2744,6.2793,6.283,6.2923,6.2965,6.3031,6.3007,6.3076,6.3126,6.3128,6.3215,6.3247,6.3308,6.3403,6.3446,6.3431,6.3587,6.3542,6.3547,6.3553,6.361,6.3623,6.3635,6.3475,6.3475,6.3474,0,0,6.2827,6.2868,6.294,6.2984,6.3049,6.3077,6.3094,6.3159,6.3182,6.327,6.3274,6.3333,6.3441,6.3486,6.3522,6.3626,6.3626,6.3644,6.3689,6.3745,6.3757,6.3767,6.3807,6.382,6.3653,6.3653,6.3653,0,6.2851,6.295,6.2976,6.3047,6.3089,6.3096,6.317,6.321,6.3291,6.332,6.3302,6.3442,6.3483,6.359,6.3616,6.3644,6.3666,6.3638,6.3753,6.3764,6.3774,6.3812,6.3827,6.3656,6.3655,6.3655,6.3655,0,6.2979,6.3048,6.3098,6.3179,6.3226,6.3298,6.3335,6.3379,6.3391,6.3421,6.3512,6.3562,6.3636,6.3662,6.3672,6.3771,6.376,6.3747,6.3716,6.3789,6.3826,6.384,6.3659,6.3658,6.3657,6.3657,0,0,6.3068,6.3165,6.3183,6.3222,6.3295,6.3349,6.3422,6.3496,6.3535,6.3591,6.3654,6.3748,6.3738,6.378,6.3795,6.3844,6.3927,6.3826,6.3828,6.3845,6.4043,6.4054,6.407,6.3927,6.393,6.3932,6.4039,0,6.316,6.3292,6.3318,6.3432,6.3498,6.3507,6.3571,6.3623,6.3654,6.3714,6.3747,6.3815,6.3795,6.3821,6.3869,6.3906,6.3967,6.3899,6.3987,6.399,6.3974,6.4089,6.41,6.4199,6.4053,6.4055,6.4057,0,6.3285,6.3348,6.3469,6.3538,6.3567,6.3624,6.3695,6.3752,6.3813,6.3832,6.3881,6.3892,6.3969,6.3933,6.4041,6.3994,6.4032,6.4056,6.406,6.4071,6.403,6.4106,6.423,6.4246,6.4079,6.4077,6.4076,0,6.3342,6.3456,6.3545,6.3577,6.3658,6.3699,6.3734,6.3793,6.3837,6.3899,6.3928,6.3998,6.4036,6.409,6.4121,6.4091,6.4228,6.4193,6.4247,6.4247,6.4277,6.4275,6.4412,6.4297,6.4297,6.4297,6.4296,0,6.3444,6.3519,6.3572,6.3626,6.3711,6.3741,6.3824,6.3859,6.3911,6.3974,6.3984,6.4042,6.4078,6.4141,6.4165,6.4253,6.4269,6.4288,6.4294,6.4289,6.4287,6.4315,6.431,6.4301,6.43,6.4299,6.4298,0,6.3523,6.3561,6.3658,6.3729,6.3748,6.3808,6.3868,6.3922,6.3953,6.4032,6.4052,6.4101,6.4177,6.4212,6.4304,6.4321,6.4422,6.4422,6.4402,6.4405,6.4459,6.4454,6.4621,6.4646,6.4511,6.4513,6.4514,0,6.3586,6.3645,6.3722,6.3766,6.3803,6.3872,6.3918,6.395,6.3997,6.4073,6.4118,6.4194,6.4257,6.4378,6.4422,6.4494,6.4497,6.4551,6.4508,6.4502,6.4502,6.4499,6.4506,6.4559,6.456,6.4561,6.4562,0,6.3697,6.3714,6.378,6.3854,6.3909,6.3968,6.4026,6.4061,6.4103,6.4155,6.4234,6.4283,6.438,6.4456,6.4532,6.4568,6.4574,6.4575,6.4592,6.4588,6.4576,6.4587,6.4426,6.4571,6.457,6.457,6.4569,6.4569,6.3772,6.3826,6.389,6.3964,6.4012,6.4067,6.4122,6.4162,6.4228,6.4311,6.4325,6.441,6.4471,6.4574,6.4613,6.468,6.4668,6.4691,6.4698,6.4704,6.4709,6.4564,6.4693,6.4693,6.4693,6.4693,6.4693,0,6.3886,6.3928,6.3996,6.4079,6.4138,6.4138,6.4204,6.4253,6.4328,6.4385,6.4448,6.454,6.4615,6.4666,6.4743,6.4787,6.4791,6.4806,6.4804,6.4814,6.4714,6.4693,6.4801,6.4801,6.4801,6.4801,6.4801,6.4801,6.3952,6.4045,6.4069,6.4186,6.4228,6.4312,6.435,6.4401,6.4448,6.4551,6.4614,6.4647,6.4703,6.4784,6.4854,6.4867,6.4896,6.4912,6.4925,6.4831,6.482,6.4809,6.479,6.4917,6.4917,6.5019,6.502,6.5021]}]]